Weather History for KFSI - May, 2013

Change the Weather History Date:

Sunday, May 19, 2013

  Actual Average Record
Temperature  
Mean Temperature 84 °F -  
Max Temperature 100 °F 84 °F 100 °F (1973)
Min Temperature 68 °F 59 °F 45 °F (1971)
Cooling Degree Days 18    
Growing Degree Days 34 (Base 50)    
Moisture  
Dew Point 57 °F    
Average Humidity 52    
Maximum Humidity 86    
Minimum Humidity 9    
Precipitation  
Precipitation 0.00 in - - ()
Sea Level Pressure  
Sea Level Pressure 29.60 in    
Wind  
Wind Speed 14 mph (South)    
Max Wind Speed 23 mph    
Max Gust Speed 36 mph    
Visibility 9 miles    
Events      
Averages and records for this station are not official NWS values.
T = Trace of Precipitation, MM = Missing Value Source: NWS Daily Summary

Daily Weather History Graph

Daily Weather History Graph

Search for Another Location

Airport or City:

Trip Planner

Search our weather history database for the weather conditions in past years. The results will help you decide how hot, cold, wet, or windy it might be!

Date:

Astronomy

May. 19, 2013 Rise Set
Actual Time 6:27 AM CDT 8:32 PM CDT
Civil Twilight 5:59 AM CDT 9:01 PM CDT
Nautical Twilight 5:25 AM CDT 9:35 PM CDT
Astronomical Twilight 4:48 AM CDT 10:12 PM CDT
Moon 2:52 PM CDT (5/19) 2:37 AM CDT (5/19)
Length of Visible Light 15h 01m
Length of Day
14h 04m
Waxing Gibbous, 65% of the Moon is Illuminated
May 19
Waxing Gibbous
May 24
Full
May 31
Last Quarter
Jun 8
New
Jun 16
First Quarter

Hourly Weather History & Observations

Time (CDT) Temp. Heat Index Dew Point Humidity Pressure Visibility Wind Dir Wind Speed Gust Speed Precip Events Conditions
12:58 AM 68.7 °F - 64.2 °F 86% 29.70 in 10.0 mi SE 11.5 mph - N/A   Clear
1:58 AM 69.1 °F - 64.6 °F 86% 29.66 in 10.0 mi SE 11.5 mph - N/A   Clear
2:58 AM 72.1 °F - 66.7 °F 83% 29.64 in 10.0 mi SSE 13.8 mph - N/A   Clear
3:58 AM 72.3 °F - 66.2 °F 81% 29.64 in 10.0 mi SSE 10.4 mph - N/A   Clear
4:58 AM 71.2 °F - 65.1 °F 81% 29.64 in 10.0 mi SSE 9.2 mph - N/A   Clear
5:58 AM 72.0 °F - 64.9 °F 78% 29.63 in 10.0 mi South 11.5 mph - N/A   Clear
6:58 AM 71.2 °F - 64.9 °F 80% 29.65 in 10.0 mi South 11.5 mph - N/A   Clear
7:58 AM 73.2 °F - 65.3 °F 76% 29.65 in 10.0 mi South 11.5 mph - N/A   Clear
8:58 AM 76.8 °F - 66.7 °F 71% 29.66 in 10.0 mi South 17.3 mph - N/A   Clear
9:58 AM 81.5 °F 84.1 °F 67.5 °F 62% 29.66 in 10.0 mi South 15.0 mph 25.3 mph N/A   Clear
10:58 AM 84.9 °F 87.6 °F 67.1 °F 55% 29.64 in 10.0 mi South 23.0 mph 31.1 mph N/A   Clear
11:58 AM 88.2 °F 90.9 °F 66.6 °F 49% 29.62 in 10.0 mi South 19.6 mph 31.1 mph N/A   Clear
12:58 PM 91.4 °F 94.0 °F 66.2 °F 43% 29.59 in 10.0 mi South 23.0 mph 26.5 mph N/A   Clear
1:58 PM 94.6 °F 94.7 °F 60.8 °F 32% 29.57 in 10.0 mi South 17.3 mph 27.6 mph N/A   Partly Cloudy
2:58 PM 98.2 °F 96.3 °F 55.0 °F 23% 29.55 in 10.0 mi SSW 12.7 mph 25.3 mph N/A   Clear
3:58 PM 99.9 °F - 33.8 °F 10% 29.52 in 10.0 mi WSW 20.7 mph 31.1 mph N/A   Clear
4:58 PM 99.5 °F - 31.3 °F 9% 29.49 in 10.0 mi WSW 18.4 mph 35.7 mph N/A   Clear
5:58 PM 98.8 °F - 28.9 °F 9% 29.49 in 10.0 mi WSW 18.4 mph 29.9 mph N/A   Clear
6:58 PM 97.2 °F - 31.6 °F 10% 29.50 in 10.0 mi WSW 17.3 mph 21.9 mph N/A   Clear
7:58 PM 93.7 °F - 32.4 °F 11% 29.53 in 10.0 mi WSW 8.1 mph - N/A   Clear
8:58 PM 85.5 °F - 36.5 °F 17% 29.57 in 10.0 mi Calm Calm - N/A   Clear
9:58 PM 81.5 °F 83.9 °F 66.9 °F 61% 29.59 in 4.0 mi SSE 18.4 mph - N/A   Haze
10:58 PM 81.0 °F 84.2 °F 69.6 °F 68% 29.61 in 3.0 mi SSE 15.0 mph - N/A   Haze
11:58 PM 79.9 °F - 69.4 °F 70% 29.61 in 3.0 mi South 15.0 mph - N/A   Haze